Weather History for KFCM - October, 2013

Change the Weather History Date:

Monday, October 21, 2013

  Actual Average Record
Temperature  
Mean Temperature 34 °F -  
Max Temperature 39 °F 54 °F 72 °F (1999)
Min Temperature 28 °F 37 °F 28 °F (2013)
Degree Days  
Heating Degree Days 32    
Moisture  
Dew Point 23 °F    
Average Humidity 61    
Maximum Humidity 82    
Minimum Humidity 46    
Precipitation  
Precipitation 0.00 in - - ()
Sea Level Pressure  
Sea Level Pressure 29.95 in    
Wind  
Wind Speed 12 mph (WNW)    
Max Wind Speed 18 mph    
Max Gust Speed 25 mph    
Visibility 10 miles    
Events      
Averages and records for this station are not official NWS values.
T = Trace of Precipitation, MM = Missing Value Source: NWS Daily Summary

Daily Weather History Graph

Daily Weather History Graph

Search for Another Location

Airport or City:

Trip Planner

Search our weather history database for the weather conditions in past years. The results will help you decide how hot, cold, wet, or windy it might be!

Date:

Astronomy

Oct. 21, 2013 Rise Set
Actual Time 7:37 AM CDT 6:18 PM CDT
Civil Twilight 7:07 AM CDT 6:48 PM CDT
Nautical Twilight 6:33 AM CDT 7:22 PM CDT
Astronomical Twilight 5:59 AM CDT 7:56 PM CDT
Moon 8:05 PM CDT (10/21) 10:19 AM CDT (10/21)
Length of Visible Light 11h 40m
Length of Day
10h 41m
Waning Gibbous, 92% of the Moon is Illuminated
Oct 21
Waning Gibbous
Oct 26
Last Quarter
Nov 3
New
Nov 9
First Quarter
Nov 17
Full

Hourly Weather History & Observations

Time (CDT) Temp. Windchill Dew Point Humidity Pressure Visibility Wind Dir Wind Speed Gust Speed Precip Events Conditions
12:53 AM 37.0 °F 28.1 °F 27.0 °F 67% 29.90 in 10.0 mi NW 15.0 mph 23.0 mph N/A   Overcast
1:18 AM 35.6 °F 25.2 °F 26.6 °F 70% 29.89 in 10.0 mi WNW 18.4 mph 25.3 mph N/A   Overcast
1:53 AM 36.0 °F 26.0 °F 25.0 °F 64% 29.92 in 10.0 mi NNW 17.3 mph 24.2 mph N/A   Overcast
2:53 AM 35.1 °F 26.4 °F 24.1 °F 64% 29.94 in 10.0 mi WNW 12.7 mph - N/A   Overcast
3:53 AM 36.0 °F 28.0 °F 23.0 °F 59% 29.94 in 10.0 mi WNW 11.5 mph - N/A   Overcast
4:53 AM 36.0 °F 28.0 °F 23.0 °F 59% 29.94 in 10.0 mi WNW 11.5 mph - N/A   Overcast
5:53 AM 35.1 °F 28.6 °F 21.0 °F 57% 29.95 in 10.0 mi NNW 8.1 mph - N/A   Overcast
6:53 AM 35.1 °F 27.9 °F 21.9 °F 59% 29.96 in 10.0 mi WNW 9.2 mph - N/A   Overcast
7:53 AM 35.1 °F 27.9 °F 23.0 °F 61% 29.96 in 10.0 mi West 9.2 mph 17.3 mph N/A   Overcast
8:53 AM 35.1 °F 26.9 °F 23.0 °F 61% 29.97 in 10.0 mi West 11.5 mph - N/A   Overcast
9:53 AM 35.1 °F 25.5 °F 21.0 °F 57% 29.97 in 10.0 mi West 15.0 mph 21.9 mph N/A   Overcast
10:53 AM 36.0 °F 27.5 °F 21.0 °F 55% 29.97 in 10.0 mi West 12.7 mph 19.6 mph N/A   Overcast
11:53 AM 36.0 °F 27.1 °F 21.0 °F 55% 29.97 in 10.0 mi WNW 13.8 mph 20.7 mph N/A   Overcast
12:53 PM 37.0 °F 28.1 °F 19.9 °F 50% 29.97 in 10.0 mi West 15.0 mph - N/A   Overcast
1:53 PM 37.9 °F 29.2 °F 19.9 °F 48% 29.95 in 10.0 mi West 15.0 mph 20.7 mph N/A   Overcast
2:53 PM 39.0 °F 31.8 °F 19.9 °F 46% 29.95 in 10.0 mi West 11.5 mph 23.0 mph N/A   Overcast
3:53 PM 37.9 °F 30.5 °F 21.9 °F 53% 29.95 in 10.0 mi West 11.5 mph - N/A   Overcast
4:53 PM 39.0 °F 31.4 °F 21.9 °F 50% 29.95 in 10.0 mi West 12.7 mph 20.7 mph N/A   Mostly Cloudy
5:53 PM 39.0 °F 33.4 °F 21.9 °F 50% 29.96 in 10.0 mi WNW 8.1 mph - N/A   Scattered Clouds
6:53 PM 35.1 °F 30.1 °F 23.0 °F 61% 29.97 in 10.0 mi West 5.8 mph - N/A   Clear
7:53 PM 33.1 °F 27.7 °F 23.0 °F 66% 29.97 in 10.0 mi West 5.8 mph - N/A   Clear
8:53 PM 32.0 °F 27.5 °F 24.1 °F 73% 29.97 in 10.0 mi West 4.6 mph - N/A   Clear
9:53 PM 30.0 °F - 23.0 °F 75% 29.98 in 10.0 mi Calm Calm - N/A   Clear
10:53 PM 28.0 °F 24.2 °F 23.0 °F 81% 29.98 in 10.0 mi WSW 3.5 mph - N/A   Clear
11:53 PM 28.9 °F 23.9 °F 24.1 °F 82% 29.97 in 10.0 mi West 4.6 mph - N/A   Clear